Wind_Speed
19 20 20 19 17 17 17 16 14 12 13 14 13 12 12 10 7 8 7 8 6 3 5 7 11 13 10 13 7 5 4 11 12 5 13 16 9 11 10 14 4 4 7 15 18
18 20 22 23 23 21 20 19 17 16 14 15 15 14 13 14 9 8 13 10 8 6 3 7 6 11 10 11 7 4 11 8 4 7 16 12 12 11 11 9 11 13 12 14 17
17 19 21 22 25 26 25 24 21 19 18 16 16 16 16 14 14 9 11 11 11 9 3 2 7 8 9 11 8 8 7 8 14 8 8 9 7 7 9 8 9 10 12 18 21
18 19 19 21 23 26 28 28 27 24 22 20 18 17 17 15 5 8 13 14 11 11 6 2 7 10 13 9 4 11 2 8 9 7 4 7 7 10 7 12 10 8 13 22 23
18 19 20 21 22 23 26 29 31 31 28 25 23 20 19 19 17 12 13 15 13 11 9 4 8 11 12 10 11 4 2 1 5 10 8 8 8 9 9 9 7 11 14 22 22
16 17 18 20 21 23 24 26 28 32 33 32 30 27 25 23 16 18 20 10 11 11 10 6 8 11 11 14 9 8 6 6 6 3 8 7 4 10 1 13 14 14 17 21 22
14 14 15 17 18 21 23 25 26 28 30 34 34 34 35 30 12 16 22 18 15 10 13 9 11 13 12 10 11 8 9 6 8 3 5 8 9 7 3 15 15 17 18 23 23
14 13 13 14 15 17 19 22 24 26 27 29 32 35 43 37 32 31 23 22 20 18 17 17 16 17 16 14 12 23 16 15 8 10 11 10 6 3 9 14 14 19 20 22 24
13 14 14 14 14 14 15 18 19 22 24 27 27 30 38 38 39 39 32 32 23 21 20 19 19 18 16 17 20 20 15 13 22 12 11 10 16 5 15 13 15 21 23 28 26
16 16 14 13 14 14 13 13 15 18 21 22 24 25 30 27 29 29 35 35 30 26 25 25 23 22 21 20 28 14 7 7 14 7 18 18 13 10 16 10 7 20 23 30 30
18 19 18 17 14 14 13 14 12 16 18 18 7 15 19 8 23 29 19 21 27 29 30 25 27 28 24 23 23 17 26 13 27 23 14 7 15 12 19 18 6 14 27 25 27
18 20 19 16 18 15 14 14 14 17 24 22 26 33 29 19 21 24 24 22 27 32 30 30 36 30 25 25 24 12 15 29 12 7 12 6 15 21 22 14 9 5 23 28 23
20 19 19 19 18 18 17 16 15 18 26 30 28 30 34 33 31 24 16 25 28 30 35 37 36 29 28 28 27 26 15 30 26 15 13 10 12 33 23 23 17 13 13 29 26
21 21 21 19 18 15 15 17 18 17 19 28 22 23 27 26 36 33 26 26 29 31 32 38 34 33 32 32 28 29 29 27 12 11 20 12 13 10 24 24 24 21 23 21 32
24 21 18 17 15 15 18 16 15 12 7 9 7 16 14 31 23 29 33 28 34 31 30 36 37 37 37 36 28 31 25 21 19 15 17 16 15 20 24 31 27 27 26 25 27
23 20 17 14 12 12 11 10 9 5 12 11 12 12 16 19 29 20 19 34 27 31 32 35 29 36 36 32 30 27 27 26 21 19 20 23 23 25 28 28 25 26 27 26 25
22 20 17 14 10 11 8 5 5 12 8 18 22 15 15 18 22 30 22 30 39 31 37 32 36 34 36 35 33 28 30 25 17 19 14 23 25 8 20 22 10 27 29 28 28
24 19 17 15 12 8 6 5 14 13 18 21 9 9 11 12 16 23 33 30 34 35 30 34 32 37 31 40 37 36 34 28 17 15 17 6 15 9 11 11 22 26 27 28 29
22 17 17 14 7 5 7 16 24 15 16 9 10 13 18 16 17 19 24 36 30 37 38 32 39 26 38 33 37 37 38 35 38 31 10 12 14 12 15 11 11 29 25 29 30
17 14 9 14 9 6 11 22 20 18 19 12 14 14 22 23 19 18 20 25 35 31 34 36 33 34 31 35 35 40 32 33 37 23 11 3 7 27 18 17 15 15 26 25 29
13 8 9 13 13 7 15 16 15 19 14 14 14 17 15 19 20 21 25 18 11 35 30 34 40 34 34 42 42 38 37 36 37 34 14 12 10 17 25 26 24 19 29 25 27
8 3 11 13 9 10 14 13 16 16 11 12 15 16 17 18 18 17 14 4 10 16 18 22 40 41 41 38 38 39 40 38 35 29 31 19 8 21 17 27 21 16 31 27 26
5 9 12 11 8 9 11 15 15 15 16 14 15 15 16 17 15 16 19 7 11 5 9 10 21 31 39 31 41 45 41 41 41 33 33 21 9 15 19 33 15 21 31 30 29
1 3 6 8 7 12 11 10 14 13 14 16 14 13 15 18 20 19 16 12 13 11 15 14 17 23 29 33 33 39 41 40 41 36 31 32 18 23 16 18 11 26 28 29 30
3 5 9 6 8 9 9 11 12 11 12 10 12 16 15 16 17 20 21 18 12 14 15 11 19 22 30 32 32 40 36 41 43 41 38 32 27 19 18 20 13 23 26 28 32
7 8 10 9 13 13 14 13 13 13 13 9 10 13 11 17 14 16 13 19 18 14 6 9 19 22 32 29 33 31 40 39 39 40 39 36 12 22 23 16 8 22 26 28 30
12 12 11 10 9 12 12 10 14 11 10 11 11 13 12 12 16 15 13 14 11 8 9 10 11 16 31 25 29 37 33 40 40 40 38 40 23 21 12 19 15 24 25 26 26
Wind_Direction
260 257 255 255 253 250 248 246 243 236 238 237 231 230 217 220 215 223 218 236 248 286 341 351 12 352 311 315 316 285 326 309 122 105 120 139 99 104 105 132 123 114 245 186 175
264 261 258 255 254 253 250 248 244 241 236 237 235 237 232 227 224 236 241 240 239 258 324 7 352 312 314 303 324 264 20 306 47 62 107 128 112 126 143 139 151 189 189 169 176
271 265 263 259 257 253 252 252 248 243 240 236 236 233 236 239 234 246 250 256 240 242 258 304 289 312 306 313 299 321 292 17 80 90 121 123 89 122 142 171 185 198 172 169 167
278 275 271 265 260 258 254 251 252 249 243 241 237 237 235 234 224 229 243 249 242 237 225 222 303 309 314 316 289 324 91 51 71 105 114 138 119 162 234 171 199 212 151 160 165
291 286 278 272 269 265 259 255 251 252 250 243 242 239 238 239 229 253 239 241 243 238 223 242 290 310 311 322 319 182 48 54 104 113 116 109 129 114 86 129 197 176 160 164 166
293 288 285 281 275 269 266 261 255 251 252 251 245 242 241 239 243 256 236 235 232 225 217 270 292 300 300 309 296 207 288 157 150 132 136 143 132 150 152 162 175 178 178 176 173
299 296 294 289 282 275 271 265 263 257 252 252 251 248 244 232 220 273 238 237 242 236 253 257 275 290 302 306 328 206 219 207 195 162 163 142 123 139 252 170 175 177 179 182 179
310 310 306 298 291 286 278 271 267 262 259 254 252 253 250 241 243 235 234 244 248 245 250 250 266 281 279 285 283 231 249 219 182 170 213 192 201 177 172 175 187 175 185 189 187
309 304 307 312 303 291 284 281 273 266 261 259 256 255 252 248 247 245 244 247 243 249 250 256 261 264 272 262 262 262 223 189 214 234 221 220 181 218 183 192 190 179 192 188 197
311 314 312 308 313 311 303 292 283 275 261 256 254 260 247 252 252 250 249 241 241 245 250 252 255 258 255 244 252 253 6 253 224 193 207 223 240 195 177 206 204 183 194 196 200
301 303 308 315 310 311 316 316 313 305 265 243 241 251 223 231 217 232 218 228 237 234 237 237 240 240 244 240 251 267 294 233 276 221 196 248 217 224 191 190 249 192 186 210 204
298 294 294 297 307 311 308 316 312 290 280 267 253 235 229 205 245 234 225 224 222 227 231 233 235 239 242 243 240 242 298 259 269 247 210 225 209 195 215 223 242 232 188 198 206
303 296 288 287 288 295 300 303 303 302 301 285 267 251 240 228 236 224 223 220 223 227 225 229 234 236 238 241 242 241 207 243 271 201 244 241 242 179 205 190 212 219 198 187 199
310 306 298 289 281 278 269 287 295 305 307 300 255 254 230 227 238 238 216 222 227 228 229 232 235 234 234 237 236 244 230 242 258 265 255 210 248 216 202 193 199 208 201 198 193
316 311 304 298 283 270 268 274 277 298 285 313 161 212 205 223 225 232 224 212 226 226 226 234 230 229 234 234 232 241 244 253 250 256 270 242 230 246 234 198 197 202 211 201 199
313 312 310 304 285 275 281 275 269 249 246 258 239 251 241 224 221 216 219 217 222 228 230 234 231 229 231 233 231 234 244 248 247 261 250 252 250 257 192 198 200 200 205 207 205
313 311 306 295 279 292 270 236 248 235 271 254 244 243 237 222 221 215 218 217 214 218 228 231 231 229 225 228 227 225 232 242 235 240 244 249 250 277 203 217 222 201 200 203 206
314 312 305 293 276 275 229 225 234 244 246 273 272 217 220 217 227 217 220 222 219 218 224 223 230 224 223 223 224 224 224 235 230 232 244 322 290 285 200 270 232 212 191 196 198
315 311 311 303 282 250 212 232 234 252 279 303 287 244 230 248 246 224 222 221 219 217 228 224 232 229 222 222 223 227 225 229 244 249 205 319 250 281 217 186 183 190 193 194 196
319 320 306 232 299 250 242 247 254 253 275 265 269 251 240 243 243 230 233 227 225 224 223 231 251 229 226 221 223 223 225 226 238 251 243 164 289 262 214 226 194 196 201 204 199
324 357 233 266 301 258 246 258 258 258 261 252 260 263 255 259 258 263 226 225 230 226 225 228 239 243 224 215 220 214 227 224 234 240 251 202 206 257 239 279 226 196 206 209 209
309 123 254 291 264 264 259 263 258 245 250 269 261 256 256 257 266 267 236 258 248 217 230 228 232 240 244 222 218 219 220 225 236 239 252 268 242 229 272 245 213 198 197 207 211
306 241 256 301 246 264 269 254 249 254 254 261 258 252 245 250 262 262 255 287 292 286 253 253 227 233 242 237 214 215 219 223 230 231 241 249 236 251 204 270 195 191 191 204 195
61 297 253 273 267 275 275 277 267 255 246 243 254 253 248 243 241 249 256 258 296 276 265 266 237 239 233 232 211 208 219 221 225 233 234 242 201 181 187 253 196 178 190 195 193
114 241 263 237 261 258 259 259 264 263 254 251 252 248 246 251 245 242 259 272 276 294 294 256 258 243 243 242 237 216 216 222 225 229 237 240 236 200 199 242 251 188 192 192 187
229 248 243 257 256 270 262 262 256 255 269 249 251 248 258 244 254 266 290 260 262 274 270 247 258 247 254 250 250 249 215 219 225 225 235 243 207 198 191 209 225 193 197 194 189
254 247 241 247 254 248 249 266 245 259 263 258 273 263 260 268 271 269 290 254 275 306 290 301 270 253 255 246 254 258 229 213 221 225 226 233 208 210 208 200 193 194 202 196 188
Height
3154 3155 3155 3156 3156 3157 3158 3159 3161 3162 3162 3163 3164 3165 3166 3167 3167 3167 3167 3168 3167 3167 3166 3163 3160 3158 3159 3159 3164 3167 3162 3161 3159 3160 3158 3159 3159 3161 3162 3165 3166 3168 3168 3172 3175
3152 3151 3152 3152 3153 3154 3155 3156 3157 3159 3160 3161 3162 3163 3164 3165 3165 3166 3166 3166 3166 3166 3166 3163 3165 3166 3163 3161 3165 3164 3161 3156 3158 3156 3157 3160 3160 3163 3167 3167 3168 3168 3168 3171 3174
3149 3148 3148 3148 3149 3150 3151 3152 3153 3155 3157 3159 3160 3161 3162 3163 3164 3165 3164 3165 3166 3166 3167 3166 3165 3166 3164 3162 3163 3163 3161 3156 3157 3155 3159 3161 3164 3166 3166 3169 3168 3167 3168 3171 3175
3146 3145 3145 3145 3145 3145 3146 3147 3149 3151 3153 3155 3157 3159 3160 3161 3165 3162 3163 3164 3165 3165 3166 3166 3167 3167 3164 3163 3162 3160 3159 3157 3158 3159 3162 3162 3166 3165 3166 3166 3168 3168 3170 3172 3176
3143 3142 3141 3141 3141 3141 3141 3142 3144 3146 3148 3150 3153 3155 3156 3157 3159 3159 3161 3162 3163 3164 3165 3166 3168 3167 3165 3163 3161 3162 3161 3162 3163 3163 3163 3166 3168 3167 3169 3173 3169 3169 3171 3174 3178
3139 3138 3138 3137 3137 3136 3137 3137 3138 3140 3142 3144 3147 3150 3152 3153 3157 3156 3158 3160 3161 3162 3163 3166 3168 3167 3166 3165 3163 3163 3159 3163 3163 3164 3165 3167 3169 3171 3171 3172 3172 3170 3172 3175 3178
3135 3134 3134 3133 3132 3132 3132 3132 3133 3134 3136 3137 3140 3142 3143 3149 3153 3153 3155 3157 3159 3160 3164 3165 3167 3165 3165 3163 3162 3158 3161 3162 3164 3164 3166 3168 3171 3173 3171 3172 3170 3172 3173 3174 3178
3132 3131 3130 3129 3128 3127 3127 3127 3128 3129 3130 3131 3133 3134 3133 3144 3146 3148 3152 3154 3157 3159 3161 3163 3163 3163 3164 3163 3162 3158 3161 3160 3160 3161 3163 3166 3174 3175 3171 3171 3170 3172 3174 3176 3177
3130 3128 3127 3126 3125 3123 3122 3123 3123 3123 3124 3126 3128 3127 3129 3134 3136 3143 3146 3149 3154 3156 3157 3159 3161 3161 3164 3163 3160 3155 3153 3157 3162 3162 3163 3161 3163 3171 3167 3168 3168 3170 3172 3174 3177
3127 3126 3124 3123 3122 3121 3119 3119 3118 3118 3119 3120 3123 3125 3128 3129 3133 3134 3138 3144 3147 3152 3155 3157 3158 3158 3159 3161 3154 3153 3155 3159 3160 3156 3157 3157 3157 3158 3159 3162 3164 3166 3169 3171 3174
3124 3123 3121 3120 3119 3118 3118 3117 3118 3114 3114 3116 3122 3115 3122 3126 3125 3129 3135 3139 3141 3146 3148 3152 3154 3152 3154 3155 3154 3152 3153 3155 3158 3156 3152 3153 3151 3151 3154 3158 3160 3161 3166 3167 3170
3120 3119 3118 3117 3116 3115 3114 3113 3112 3112 3108 3109 3108 3108 3113 3118 3120 3122 3129 3133 3136 3137 3143 3147 3144 3148 3152 3152 3153 3150 3152 3155 3153 3144 3152 3152 3151 3148 3153 3153 3155 3157 3159 3165 3167
3114 3114 3113 3112 3113 3112 3110 3110 3109 3106 3102 3099 3100 3099 3104 3111 3111 3116 3124 3127 3129 3132 3134 3136 3139 3145 3147 3147 3149 3149 3148 3148 3149 3143 3148 3148 3149 3150 3150 3153 3151 3154 3156 3161 3165
3110 3109 3107 3108 3110 3108 3106 3106 3105 3104 3100 3092 3088 3091 3097 3102 3102 3109 3114 3123 3124 3125 3129 3130 3135 3138 3139 3141 3144 3143 3143 3142 3144 3142 3140 3143 3144 3150 3148 3149 3150 3149 3152 3154 3160
3105 3104 3102 3101 3102 3103 3103 3102 3103 3104 3100 3091 3085 3086 3093 3095 3102 3101 3107 3112 3115 3119 3125 3122 3127 3130 3131 3134 3139 3139 3138 3138 3138 3138 3138 3137 3139 3135 3138 3141 3143 3148 3148 3151 3155
3101 3100 3099 3098 3097 3097 3097 3099 3102 3106 3095 3090 3088 3088 3090 3091 3093 3099 3102 3107 3112 3115 3116 3117 3121 3124 3126 3130 3133 3137 3136 3136 3135 3136 3132 3131 3130 3126 3130 3138 3141 3145 3148 3149 3151
3095 3094 3093 3093 3094 3093 3094 3097 3103 3097 3089 3085 3084 3084 3086 3087 3090 3093 3096 3099 3102 3107 3108 3112 3113 3115 3121 3124 3127 3131 3132 3131 3131 3131 3125 3124 3124 3124 3127 3133 3139 3142 3145 3148 3150
3090 3088 3087 3088 3089 3090 3092 3097 3095 3087 3086 3084 3082 3081 3082 3084 3085 3087 3090 3092 3096 3101 3103 3105 3105 3108 3111 3115 3120 3122 3125 3123 3124 3120 3118 3120 3120 3121 3123 3128 3124 3133 3140 3145 3148
3085 3084 3082 3083 3084 3086 3090 3091 3086 3086 3088 3083 3081 3081 3083 3084 3084 3084 3084 3087 3090 3095 3097 3098 3099 3103 3106 3110 3115 3116 3116 3122 3119 3116 3116 3128 3125 3134 3127 3127 3128 3131 3136 3139 3143
3083 3081 3080 3082 3082 3083 3086 3083 3084 3085 3086 3085 3085 3082 3081 3081 3081 3083 3082 3084 3087 3090 3095 3095 3096 3097 3099 3106 3107 3109 3117 3118 3114 3112 3114 3126 3129 3125 3128 3128 3127 3130 3129 3133 3139
3080 3080 3079 3079 3080 3081 3082 3081 3081 3081 3081 3084 3084 3082 3080 3079 3078 3076 3078 3082 3082 3085 3089 3092 3093 3090 3093 3092 3098 3105 3106 3108 3111 3109 3106 3117 3123 3116 3123 3121 3126 3127 3125 3128 3133
3077 3080 3077 3075 3080 3078 3078 3078 3078 3077 3078 3080 3081 3081 3080 3079 3076 3075 3073 3079 3075 3076 3079 3083 3086 3084 3081 3087 3093 3097 3101 3104 3103 3104 3104 3106 3114 3116 3116 3116 3117 3120 3122 3125 3130
3073 3077 3078 3074 3075 3075 3075 3074 3075 3076 3076 3078 3077 3078 3078 3078 3079 3076 3072 3077 3075 3076 3075 3077 3076 3079 3079 3079 3082 3087 3093 3098 3101 3103 3102 3105 3109 3118 3114 3111 3113 3118 3118 3121 3126
3072 3076 3075 3073 3073 3073 3073 3072 3072 3073 3073 3074 3074 3074 3075 3076 3077 3076 3074 3075 3073 3075 3074 3074 3073 3073 3071 3073 3077 3082 3088 3092 3095 3095 3099 3101 3106 3112 3113 3112 3115 3116 3117 3118 3123
3069 3074 3072 3071 3071 3071 3070 3071 3071 3070 3070 3070 3071 3072 3073 3073 3074 3074 3073 3072 3073 3073 3073 3075 3073 3074 3071 3071 3074 3076 3082 3086 3087 3092 3093 3097 3098 3102 3104 3107 3114 3114 3117 3117 3121
3067 3068 3067 3068 3068 3069 3069 3069 3069 3068 3067 3067 3068 3069 3068 3071 3072 3070 3067 3072 3072 3071 3070 3072 3072 3073 3067 3070 3068 3068 3073 3080 3083 3088 3091 3093 3095 3098 3101 3109 3110 3114 3114 3114 3118
3061 3061 3062 3063 3065 3065 3066 3065 3065 3065 3066 3066 3065 3066 3066 3066 3063 3065 3066 3066 3068 3069 3071 3072 3072 3072 3065 3069 3067 3062 3063 3071 3080 3083 3087 3088 3093 3096 3100 3103 3106 3115 3114 3113 3116